,

(GMT )
Kandahar

Weather History for OAKN - February, 2012

Change the Weather History Date:

Monday, February 27, 2012

  Actual Average Record
Temperature  
Mean Temperature 52 °F -  
Max Temperature 62 °F - - ()
Min Temperature 42 °F - - ()
Degree Days  
Heating Degree Days 13    
Growing Degree Days 2 (Base 50)    
Moisture  
Dew Point 39 °F    
Average Humidity 64    
Maximum Humidity 87    
Minimum Humidity 37    
Precipitation  
Precipitation 0.00 in - - ()
Sea Level Pressure  
Sea Level Pressure 29.96 in    
Wind  
Wind Speed 11 mph ()    
Max Wind Speed 17 mph    
Max Gust Speed 28 mph    
Visibility 5.7 miles    
Events Rain    
T = Trace of Precipitation, MM = Missing Value Source: Averaged Metar Reports

Daily Weather History Graph

Daily Weather History Graph

Search for Another Location

Airport or City:

Trip Planner

Search our weather history database for the weather conditions in past years. The results will help you decide how hot, cold, wet, or windy it might be!

Date:

Astronomy

Feb. 27, 2012 Rise Set
Actual Time 6:36 AM AFT 6:02 PM AFT
Civil Twilight 6:12 AM AFT 6:27 PM AFT
Nautical Twilight 5:44 AM AFT 6:55 PM AFT
Astronomical Twilight 5:15 AM AFT 7:23 PM AFT
Moon 9:14 AM AFT (2/27) 11:06 PM AFT (2/27)
Length of Visible Light 12h 14m
Length of Day
11h 25m
Waxing Crescent, 25% of the Moon is Illuminated
Feb 27
Waxing Crescent
Mar 1
First Quarter
Mar 8
Full
Mar 15
Last Quarter
Mar 22
New

Hourly Weather History & Observations

Time (AFT) Temp. Windchill Dew Point Humidity Pressure Visibility Wind Dir Wind Speed Gust Speed Precip Events Conditions
12:20 AM 46.4 °F 39.5 °F 33.8 °F 62% 29.88 in 1.5 mi ENE 17.3 mph 27.6 mph N/A   Widespread Dust
1:10 AM 46.4 °F 39.8 °F 35.6 °F 66% 29.91 in 3.7 mi NE 16.1 mph 23.0 mph N/A   Widespread Dust
1:20 AM 46.4 °F 40.1 °F 35.6 °F 66% 29.91 in 3.7 mi ENE 15.0 mph 20.7 mph N/A   Widespread Dust
2:20 AM 46.4 °F 40.4 °F 35.6 °F 66% 29.90 in 5.0 mi ENE 13.8 mph 23.0 mph N/A   Widespread Dust
3:20 AM 44.6 °F 38.1 °F 37.4 °F 76% 29.92 in 5.6 mi NE 13.8 mph 20.7 mph N/A Rain Light Rain Showers
4:00 AM 44.6 °F 38.1 °F 37.4 °F 76% 29.94 in 6.2 mi ENE 13.8 mph 21.9 mph N/A   Mostly Cloudy
4:20 AM 44.6 °F 38.4 °F 37.4 °F 76% 29.95 in 5.6 mi ENE 12.7 mph 20.7 mph N/A Rain Light Rain Showers
5:20 AM 42.8 °F 36.2 °F 39.2 °F 87% 29.99 in 6.2 mi NE 12.7 mph 18.4 mph N/A   Mostly Cloudy
6:06 AM 44.6 °F 38.8 °F 39.2 °F 81% 30.00 in 5.6 mi ENE 11.5 mph 18.4 mph N/A Rain Light Rain Showers
6:20 AM 44.6 °F 38.8 °F 39.2 °F 81% 30.01 in 6.2 mi ENE 11.5 mph 17.3 mph N/A   Mostly Cloudy
7:20 AM 44.6 °F 38.8 °F 39.2 °F 81% 30.03 in 6.2 mi East 11.5 mph 17.3 mph N/A   Mostly Cloudy
8:20 AM 46.4 °F 41.5 °F 41.0 °F 81% 30.04 in 6.2 mi East 10.4 mph - N/A   Scattered Clouds
9:20 AM 51.8 °F - 42.8 °F 71% 30.02 in 6.2 mi East 10.4 mph - N/A   Partly Cloudy
10:20 AM 55.4 °F - 42.8 °F 63% 30.01 in 6.2 mi ESE 3.5 mph - N/A   Partly Cloudy
11:20 AM 59.0 °F - 42.8 °F 55% 29.98 in 6.2 mi Variable 2.3 mph - N/A   Scattered Clouds
12:20 PM 59.0 °F - 42.8 °F 55% 29.96 in 6.2 mi WSW 3.5 mph - N/A   Scattered Clouds
1:20 PM 60.8 °F - 41.0 °F 48% 29.94 in 6.2 mi NNW 4.6 mph - N/A   Partly Cloudy
2:20 PM 62.6 °F - 39.2 °F 42% 29.91 in 6.2 mi West 9.2 mph - N/A   Partly Cloudy
3:20 PM 62.6 °F - 41.0 °F 45% 29.90 in 6.2 mi West 9.2 mph - N/A   Partly Cloudy
4:20 PM 62.6 °F - 35.6 °F 37% 29.90 in 6.2 mi West 11.5 mph - N/A   Partly Cloudy
5:20 PM 60.8 °F - 35.6 °F 39% 29.92 in 6.2 mi West 11.5 mph - N/A   Partly Cloudy
6:20 PM 57.2 °F - 39.2 °F 51% 29.95 in 6.2 mi West 11.5 mph - N/A   Partly Cloudy
7:20 PM 55.4 °F - 39.2 °F 54% 29.99 in 6.2 mi West 9.2 mph - N/A   Partly Cloudy
8:20 PM 53.6 °F - 41.0 °F 62% 30.01 in 6.2 mi West 9.2 mph - N/A   Partly Cloudy
9:20 PM 51.8 °F - 41.0 °F 67% 30.01 in 6.2 mi West 9.2 mph - N/A   Partly Cloudy
10:20 PM 50.0 °F - 41.0 °F 71% 30.01 in 6.2 mi WSW 10.4 mph - N/A   Clear
11:20 PM 48.2 °F - 41.0 °F 76% 29.99 in 6.2 mi SW 6.9 mph - N/A   Clear